Regional Weather Roundup
Issued by NWS

Home | Current Version | Previous Version | Text Only | Print | Product List | Glossary On
Versions: 1 2 3 4 5 6 7 8 9 10 11 12 13 14 15 16 17 18 19 20 21 22 23 24 25 26 27 28 29 30 31 32 33 34 35 36 37 38 39 40 41 42 43 44 45 46 47 48 49 50
000
ASUS43 KDMX 222006
RWRIA

WEATHER ROUNDUP FOR IOWA
NATIONAL WEATHER SERVICE DES MOINES IA
300 PM CDT THU JUN 22 2017

NOTE: "FAIR" INDICATES FEW OR NO CLOUDS BELOW 12,000 FEET WITH NO
SIGNIFICANT WEATHER AND/OR OBSTRUCTIONS TO VISIBILITY.

* - THESE STATIONS ARE NOT NWS STATIONS...THUS NOT UNDER NWS
QUALITY CONTROL.  THEY ALSO DO NOT REPORT WEATHER SUCH
AS PRECIPITATION OR FOG.

IAZ001>003-012>014-020>022-031>034-043>046-222100-
   NORTHWEST IOWA

CITY           SKY/WX    TMP DP  RH WIND       PRES   REMARKS
CARROLL *      CLOUDY    88  66  48 S14       29.65S HX  90
CHEROKEE *     CLOUDY    82  69  64 N10       29.68F HX  85
DENISON *      CLOUDY    84  66  54 VRB5G13   29.67R HX  86
LE MARS *      MOSUNNY   84  61  45 NE17G26   29.68F HX  84
ORANGE CITY *  PTSUNNY   79  63  57 E13G18    29.71S HX  80
SHELDON *      CLOUDY    81  64  57 NE16      29.71S HX  82
SIOUX CITY     CLOUDY    87  67  51 NE15G22   29.66R HX  90
SPENCER        CLOUDY    83  63  50 E20       29.70S HX  84
STORM LAKE *   LGT RAIN  79  68  69 NE12      29.69S HX  81
$$

IAZ055>058-069>071-079>083-090>094-222100-
   SOUTHWEST IOWA

CITY           SKY/WX    TMP DP  RH WIND       PRES   REMARKS
ATLANTIC *     SUNNY     84  70  61 S16G22    29.65F HX  88
AUDUBON *      SUNNY     86  70  58 S13G18    29.67S HX  90
CLARINDA *     SUNNY     86  72  62 S15       29.68S HX  92
COUNCIL BLFS * MOSUNNY   86  70  58 MISG      29.64S HX  90
CRESTON *      CLOUDY    84  70  61 S18G24    29.70F HX  88
HARLAN  *      CLOUDY    84  70  61 S10G17    29.68F HX  88
LAMONI         CLOUDY    81  73  76 S5        29.70F HX  86
RED OAK *      SUNNY     86  70  58 S14G21    29.65F HX  90
SHENANDOAH *   SUNNY     88  72  58 S14       29.65F HX  94
$$

IAZ047>049-059>061-072>074-084-222100-
   CENTRAL IOWA

CITY           SKY/WX    TMP DP  RH WIND       PRES   REMARKS
AMES           CLOUDY    84  69  60 S16G24    29.67F HX  88
ANKENY *       CLOUDY    86  70  58 S12G20    29.68F HX  90
BOONE *        CLOUDY    84  68  58 S13G20    29.66F HX  87
CHARITON *     PTSUNNY   86  68  54 S12G20    29.69F HX  89
DES MOINES     CLOUDY    85  70  60 S13       29.66F HX  89
GRINNELL*      CLOUDY    80  71  73 S12       29.70F HX  83
KNOXVILLE *    CLOUDY    84  68  58 S13       29.67F HX  87
MARSHALLTOWN   CLOUDY    83  72  69 S13G20    29.68F HX  88
NEWTON *       CLOUDY    82  73  74 S12G18    29.68F HX  88
PELLA *        CLOUDY    86  67  53 S16G24    29.69F HX  89
PERRY *          N/A     86  63  45 S15G24    29.66F HX  87
$$

IAZ004>006-015-016-023>025-035-036-222100-
   NORTH CENTRAL IOWA

CITY           SKY/WX    TMP DP  RH WIND       PRES   REMARKS
ALGONA *       CLOUDY    75  66  73 E7        29.70F
CLARION *        N/A     82  70  65 S8        29.69R HX  86
ESTHERVILLE    CLOUDY    76  64  66 E12       29.72R
FORT DODGE *   CLOUDY    82  66  57 SW7       29.69R HX  85
MASON CITY     CLOUDY    73  68  84 N13       29.73R
FOREST CITY *  CLOUDY    73  63  68 NE6       29.73R
WEBSTER CITY * MOSUNNY   84  70  61 S8        29.65S HX  88
IOWA FALLS *     N/A     83  69  62 S9        29.69F HX  86
$$

IAZ007>011-017>019-026>030-037>042-050>054-066-222100-
   NORTHEAST IOWA

CITY           SKY/WX    TMP DP  RH WIND       PRES   REMARKS
CEDAR RAPIDS   CLOUDY    80  72  76 SE12G20   29.68F HX  84
CHARLES CITY * CLOUDY    79  72  78 SE8       29.71S HX  82
CLINTON *      CLOUDY    86  72  62 S15       29.75F HX  92
DECORAH *      CLOUDY    75  68  78 VRB5G12   29.71F
DUBUQUE        CLOUDY    79  69  71 SE8       29.74S HX  81
MONTICELLO *   MOSUNNY   81  70  69 VRB3G14   29.71R HX  84
OELWEIN *      CLOUDY    79  72  78 S12       29.73S HX  82
WATERLOO       CLOUDY    81  69  67 S8        29.69F HX  84
$$

IAZ064-065-067-068-078-222100-
   EAST CENTRAL IOWA

CITY           SKY/WX    TMP DP  RH WIND       PRES   REMARKS
DAVENPORT      PTSUNNY   84  70  62 S12       29.75F HX  88
IOWA CITY      CLOUDY    86  71  60 S10       29.74F HX  91
MT. PLEASANT * MOSUNNY   87  68  52 SE12      29.75S HX  91
MUSCATINE *    PTSUNNY   88  68  51 S8G15     29.74F HX  91
QUAD CITIES    MOSUNNY   86  70  58 S13       29.74F HX  90
$$

IAZ062-063-075>077-085>089-095>099-222100-
   SOUTHEAST IOWA

CITY           SKY/WX    TMP DP  RH WIND       PRES   REMARKS
BURLINGTON     PTSUNNY   85  72  65 S15       29.75F HX  91
FAIRFIELD *    MOSUNNY   88  66  48 S9G17     29.72F HX  90
FORT MADISON * PTSUNNY   86  72  62 S9        29.76S HX  92
KEOKUK *       PTSUNNY   84  72  65 S15G22    29.74F HX  89
OSKALOOSA *      N/A     88  69  53 S9G16     29.71F HX  92
CENTERVILLE *    N/A     90  70  51 S10G16    29.74F HX  95
OTTUMWA        MOSUNNY   89  70  53 S9        29.71F HX  94
WASHINGTON *   MOSUNNY   86  72  62 S12G18    29.74F HX  92
$$

ABBREVIATIONS USED IN REMARKS
   TC - TEMPERATURES IN CELSIUS
  WCI - WIND CHILL INDEX
   HX - HEAT INDEX
  VSB - VISIBILITY
$$




USA.gov is the U.S. government's official web portal to all federal, state and local government web resources and services.